Погода в Мале

Мальдивы     4°10′29″N   73°30′34″E
темп.,
°C
ветер,
м/с
пор.,
м/с
влажн.,
%
обл.,
%
осадки,
мм/ч
давл.,
гПа
погр.,
м
16 мая, вс
вс1623:00+29зюз8117893 6.3 10091097
02:00+29з9127382 0.6 10061257
05:00+29з101274100 0.6 10061155
08:00+30з9117384 0.1 10081248
11:00+30з91276100 0.2 10081182
14:00+30з10127697 0.1 10061129
17:00+29з10117798 0.1 10061006
20:00+29з9117668 0.0 1008993
17 мая, пн
пн1723:00+29з101178100 0.0 1009874
02:00+29з9107853 0.0 1007852
05:00+29з897699 0.1 10071039
08:00+29з797592 0.0 10091010
11:00+29з7874100 0.0 10091053
14:00+30з787399 0.0 10071107
17:00+30з78735 0.4 10071087
20:00+29з78765 0.4 1009955
18 мая, вт
вт1823:00+30з89755 0.6 10091064
02:00+29з89755 0.4 10071075
05:00+29зюз887514 1.4 1007986
08:00+29зюз787534 0.2 1009973
11:00+30зюз7974100 0.3 10091046
14:00+30з8972100 0.3 10071164
17:00+29з8975100 0.7 10071022
20:00+29з897646 0.8 1009978
19 мая, ср
ср1923:00+29з8976100 1.9 1010978
02:00+29зюз8976100 0.8 1008983
05:00+29зюз787533 2.1 1008967
08:00+29зюз787495 0.7 1009991
11:00+30зюз897299 1.3 10091095
14:00+29з897396 1.4 10071083
17:00+28з7878100 4.4 1007597
20:00+28зюз7877100 3.4 1009673
20 мая, чт
чт2023:00+29з91076100 5.9 1010990
02:00+28з7878100 2.2 1008852
05:00+29з7876100 5.2 1008923
08:00+29з7875100 1.8 1010915
11:00+29з7776100 3.2 1010867
14:00+28з677796 2.8 1008706
17:00+29з7872100 4.6 10081042
20:00+28з7877100 2.8 1010642